CW6090 Weather Reports


time (UTC)temp
C
wind
direction
speed
KPH
gust
KPH
rain 1hr
cm
rain 24hr
cm
rain mn
cm
humidity
%
barometer
mb
20260508145616 12 296 3.2 6.4 0.00 0.00 0.00 49 1018.2
20260508145113 12 270 6.4 6.4 0.00 0.00 0.00 47 1018.2
20260508144611 12 286 3.2 4.8 0.00 0.00 0.00 48 1018.1
20260508144108 11 278 1.6 3.2 0.00 0.00 0.00 50 1018.0
20260508143606 11 292 0.0 3.2 0.00 0.00 0.00 51 1018.1
20260508143102 11 249 3.2 4.8 0.00 0.00 0.00 51 1018.1
20260508142559 11 288 0.0 1.6 0.00 0.00 0.00 49 1018.1
20260508142055 10 309 1.6 3.2 0.00 0.00 0.00 49 1018.0
20260508141552 10 290 1.6 1.6 0.00 0.00 0.00 54 1018.1
20260508141049 10 261 3.2 3.2 0.00 0.00 0.00 60 1018.1
20260508140547 10 288 0.0 3.2 0.00 0.00 0.00 53 1018.1
20260508140043 10 266 1.6 3.2 0.00 0.00 0.00 54 1018.2
20260508135538 10 236 3.2 4.8 0.00 0.00 0.00 53 1018.5
20260508135035 9 266 1.6 1.6 0.00 0.00 0.00 64 1018.2
20260508134532 9 275 1.6 1.6 0.00 0.00 0.00 63 1018.0
20260508134029 9 291 0.0 1.6 0.00 0.00 0.00 55 1018.2
20260508133526 8 279 1.6 1.6 0.00 0.00 0.00 66 1018.0
20260508133023 8 287 0.0 0.0 0.00 0.00 0.00 67 1018.1
20260508132521 7 284 1.6 1.6 0.00 0.00 0.00 69 1018.2
20260508132017 7 299 0.0 0.0 0.00 0.00 0.00 75 1017.8
20260508131512 7 302 0.0 0.0 0.00 0.00 0.00 77 1017.9
20260508131009 7 297 1.6 1.6 0.00 0.00 0.00 80 1017.9
20260508130507 6 297 0.0 1.6 0.00 0.00 0.00 81 1017.8
20260508130002 6 302 0.0 0.0 0.00 0.00 0.00 82 1017.9
20260508125458 6 302 0.0 0.0 0.00 0.00 0.00 84 1017.9
20260508124956 5 305 0.0 0.0 0.00 0.00 0.00 87 1017.9
20260508124454 5 299 0.0 0.0 0.00 0.00 0.00 87 1017.8
20260508123951 5 300 0.0 1.6 0.00 0.00 0.00 88 1017.7
20260508123450 4 305 0.0 1.6 0.00 0.00 0.00 91 1017.6
20260508122946 3 308 0.0 1.6 0.00 0.00 0.00 95 1017.8
20260508122443 3 305 0.0 1.6 0.00 0.00 0.00 98 1017.7
20260508121940 3 301 0.0 0.0 0.00 0.00 0.00 99 1017.6
20260508121438 3 302 0.0 0.0 0.00 0.00 0.00 99 1017.5
20260508120936 2 299 0.0 0.0 0.00 0.00 0.00 99 1017.5
20260508120433 2 297 1.6 1.6 0.00 0.00 0.00 99 1017.4
20260508115931 2 302 0.0 0.0 0.00 0.00 0.00 99 1017.6
20260508115429 2 301 0.0 0.0 0.00 0.00 0.00 99 1017.4
20260508114925 2 300 0.0 0.0 0.00 0.00 0.00 99 1017.2
20260508114422 1 309 1.6 1.6 0.00 0.00 0.00 99 1017.2
20260508113918 1 308 0.0 1.6 0.00 0.00 0.00 99 1017.0
20260508113416 1 308 1.6 1.6 0.00 0.00 0.00 99 1017.0
20260508112913 1 309 1.6 1.6 0.00 0.00 0.00 99 1016.9
20260508112410 1 310 1.6 1.6 0.00 0.00 0.00 99 1017.2
20260508111907 1 308 1.6 1.6 0.00 0.00 0.00 99 1016.9
20260508111403 1 306 0.0 1.6 0.00 0.00 0.00 99 1016.8
20260508110900 1 310 1.6 1.6 0.00 0.00 0.00 99 1016.9
20260508110358 1 305 0.0 0.0 0.00 0.00 0.00 99 1016.7
20260508105858 1 304 0.0 0.0 0.00 0.00 0.00 99 1016.8
20260508105354 1 306 1.6 1.6 0.00 0.00 0.00 99 1016.7
20260508104852 1 307 1.6 1.6 0.00 0.00 0.00 99 1016.4
20260508104349 1 301 0.0 0.0 0.00 0.00 0.00 99 1016.5
20260508103846 2 300 0.0 0.0 0.00 0.00 0.00 99 1016.4
20260508103343 2 307 1.6 3.2 0.00 0.00 0.00 99 1016.4
20260508102840 1 311 1.6 1.6 0.00 0.00 0.00 99 1016.4
20260508102338 1 299 0.0 0.0 0.00 0.00 0.00 99 1016.4
20260508101835 1 301 0.0 1.6 0.00 0.00 0.00 99 1016.3
20260508101333 2 301 0.0 0.0 0.00 0.00 0.00 99 1016.1
20260508100830 2 305 0.0 1.6 0.00 0.00 0.00 99 1016.1
20260508100329 1 302 0.0 0.0 0.00 0.00 0.00 99 1016.0
20260508095824 1 295 0.0 0.0 0.00 0.00 0.00 99 1016.1
20260508095322 1 291 0.0 1.6 0.00 0.00 0.00 99 1016.0
20260508094819 2 302 0.0 0.0 0.00 0.00 0.00 99 1016.0
20260508094316 2 295 0.0 0.0 0.00 0.00 0.00 99 1016.1
20260508093812 2 295 0.0 0.0 0.00 0.00 0.00 99 1016.1
20260508093310 2 297 0.0 0.0 0.00 0.00 0.00 99 1015.6
20260508092807 2 295 0.0 0.0 0.00 0.00 0.00 99 1015.8
20260508092312 2 303 0.0 0.0 0.00 0.00 0.00 98 1016.0
20260508091803 3 305 0.0 1.6 0.00 0.00 0.00 98 1015.8
20260508091259 3 305 0.0 1.6 0.00 0.00 0.00 98 1016.1
20260508090757 3 299 0.0 0.0 0.00 0.00 0.00 98 1015.8
20260508090255 3 302 0.0 1.6 0.00 0.00 0.00 98 1015.8
20260508085750 3 308 1.6 1.6 0.00 0.00 0.00 98 1015.8
20260508085248 3 309 1.6 1.6 0.00 0.00 0.00 97 1015.8
20260508084744 3 304 0.0 0.0 0.00 0.00 0.00 97 1016.0
20260508084242 4 302 0.0 1.6 0.00 0.00 0.00 97 1016.1
20260508083739 4 309 1.6 1.6 0.00 0.00 0.00 98 1015.8
20260508083237 4 305 0.0 1.6 0.00 0.00 0.00 98 1015.7
20260508082736 4 309 1.6 1.6 0.00 0.00 0.00 99 1015.6
20260508082235 4 313 1.6 1.6 0.00 0.00 0.00 99 1015.6
20260508081731 4 306 1.6 1.6 0.00 0.00 0.00 99 1016.0
20260508081228 4 301 0.0 1.6 0.00 0.00 0.00 99 1015.8
20260508080725 4 303 0.0 1.6 0.00 0.00 0.00 99 1016.0
20260508080223 4 304 1.6 1.6 0.00 0.00 0.00 99 1015.7
20260508075719 4 302 1.6 1.6 0.00 0.00 0.00 99 1015.8
20260508075217 4 304 1.6 1.6 0.00 0.00 0.00 99 1016.1
20260508074714 4 304 1.6 1.6 0.00 0.00 0.00 99 1015.6
20260508074212 4 305 1.6 1.6 0.00 0.00 0.00 99 1015.7
20260508073708 4 304 0.0 1.6 0.00 0.00 0.00 99 1015.6
20260508073207 4 300 0.0 1.6 0.00 0.00 0.00 99 1015.6
20260508072702 4 304 1.6 1.6 0.00 0.00 0.00 99 1015.5
20260508072159 4 301 1.6 3.2 0.00 0.00 0.00 99 1016.0
20260508071656 4 300 0.0 1.6 0.00 0.00 0.00 99 1016.0
20260508071155 5 301 1.6 1.6 0.00 0.00 0.00 99 1016.1
20260508070652 5 303 1.6 3.2 0.00 0.00 0.00 99 1015.8
20260508070150 4 302 1.6 1.6 0.00 0.00 0.00 99 1015.7
20260508065647 4 300 1.6 1.6 0.00 0.00 0.00 99 1016.1
20260508065145 4 299 0.0 1.6 0.00 0.00 0.00 99 1016.0
20260508064642 5 298 0.0 0.0 0.00 0.00 0.00 99 1016.0
20260508064140 5 296 0.0 0.0 0.00 0.00 0.00 99 1015.8
20260508063637 5 298 0.0 0.0 0.00 0.00 0.00 99 1016.3
20260508063135 5 299 0.0 0.0 0.00 0.00 0.00 99 1016.0
20260508062633 5 297 0.0 0.0 0.00 0.00 0.00 99 1016.1
20260508062129 5 298 0.0 1.6 0.00 0.00 0.00 99 1016.0
20260508061626 5 296 0.0 0.0 0.00 0.00 0.00 99 1015.8
20260508061124 5 299 0.0 1.6 0.00 0.00 0.00 99 1015.8
20260508060620 5 297 0.0 0.0 0.00 0.00 0.00 99 1016.1
20260508060118 5 297 0.0 1.6 0.00 0.00 0.00 99 1016.1
20260508055613 5 300 0.0 1.6 0.00 0.00 0.00 99 1016.1
20260508055110 5 297 0.0 0.0 0.00 0.00 0.00 99 1016.0
20260508054607 5 295 0.0 0.0 0.00 0.00 0.00 99 1016.1
20260508054104 5 301 1.6 1.6 0.00 0.00 0.00 99 1016.0
20260508053601 5 300 0.0 0.0 0.00 0.00 0.00 99 1016.1
20260508053059 5 300 0.0 1.6 0.00 0.00 0.00 99 1016.0
20260508052556 5 292 0.0 0.0 0.00 0.00 0.00 99 1016.1
20260508052053 5 297 0.0 0.0 0.00 0.00 0.00 99 1016.0
20260508051549 5 296 0.0 0.0 0.00 0.00 0.00 99 1016.0
20260508051045 6 294 0.0 0.0 0.00 0.00 0.00 99 1016.1
20260508050541 5 300 1.6 1.6 0.00 0.00 0.00 99 1015.8
20260508050038 5 294 0.0 0.0 0.00 0.00 0.00 99 1015.7
20260508045534 5 293 0.0 0.0 0.00 0.00 0.00 99 1015.8
20260508045032 5 291 0.0 0.0 0.00 0.00 0.00 99 1015.7
20260508044529 6 291 0.0 1.6 0.00 0.00 0.00 98 1015.6
20260508044025 6 296 0.0 0.0 0.00 0.00 0.00 98 1015.7
20260508043522 6 296 0.0 1.6 0.00 0.00 0.00 98 1015.5
20260508043019 6 297 0.0 1.6 0.00 0.00 0.00 98 1015.4
20260508042516 6 300 0.0 1.6 0.00 0.00 0.00 99 1015.4
20260508042013 6 302 0.0 1.6 0.00 0.00 0.00 99 1015.5
20260508041509 6 299 0.0 1.6 0.00 0.00 0.00 98 1015.5
20260508041006 6 299 0.0 1.6 0.00 0.00 0.00 98 1015.4
20260508040503 6 299 0.0 1.6 0.00 0.00 0.00 98 1015.2
20260508040001 6 304 1.6 1.6 0.00 0.08 0.08 98 1015.3
20260508035458 6 299 0.0 1.6 0.00 0.08 0.08 98 1015.2
20260508034954 6 306 1.6 3.2 0.00 0.08 0.08 99 1015.3
20260508034452 6 304 1.6 1.6 0.00 0.08 0.08 99 1015.4
20260508033948 6 301 0.0 1.6 0.00 0.08 0.08 99 1015.5
20260508033447 6 300 0.0 1.6 0.00 0.08 0.08 99 1015.5
20260508032944 6 303 1.6 1.6 0.00 0.08 0.08 99 1015.4
20260508032441 5 291 0.0 0.0 0.00 0.08 0.08 99 1015.4
20260508031938 6 296 0.0 1.6 0.00 0.08 0.08 99 1015.3
20260508031435 6 278 1.6 1.6 0.00 0.08 0.08 99 1015.3
20260508030930 6 296 0.0 1.6 0.00 0.08 0.08 98 1015.3
20260508030428 6 299 0.0 0.0 0.00 0.08 0.08 98 1015.3
20260508025925 6 296 0.0 0.0 0.00 0.08 0.08 98 1015.1
20260508025422 6 297 0.0 0.0 0.00 0.08 0.08 98 1015.2
20260508024918 6 299 0.0 0.0 0.00 0.08 0.08 98 1014.8
20260508024416 6 301 0.0 1.6 0.00 0.08 0.08 98 1015.0
20260508023912 6 304 0.0 0.0 0.00 0.08 0.08 98 1015.0
20260508023409 6 305 0.0 1.6 0.00 0.08 0.08 98 1015.0
20260508022906 6 301 0.0 0.0 0.00 0.08 0.08 97 1014.9
20260508022401 6 299 0.0 1.6 0.00 0.08 0.08 97 1015.0
20260508021858 6 301 0.0 0.0 0.00 0.08 0.08 97 1014.8
20260508021354 6 305 0.0 0.0 0.00 0.08 0.08 96 1014.8
20260508020850 6 301 0.0 0.0 0.00 0.08 0.08 96 1014.6
20260508020348 6 301 0.0 0.0 0.00 0.08 0.08 95 1014.5
20260508015845 6 297 0.0 0.0 0.00 0.08 0.08 95 1014.5
20260508015343 6 296 0.0 0.0 0.00 0.08 0.08 95 1014.5
20260508014839 7 299 0.0 0.0 0.00 0.08 0.08 94 1014.4
20260508014337 7 299 0.0 0.0 0.00 0.08 0.08 93 1014.5
20260508013837 7 299 0.0 1.6 0.00 0.08 0.08 93 1014.2
20260508013334 7 316 1.6 1.6 0.00 0.08 0.08 93 1014.1
20260508012831 7 311 1.6 1.6 0.00 0.08 0.08 93 1014.3
20260508012328 7 308 1.6 1.6 0.00 0.08 0.08 92 1014.2
20260508011826 7 305 0.0 1.6 0.00 0.08 0.08 92 1013.9
20260508011324 7 309 1.6 1.6 0.00 0.08 0.08 91 1014.0
20260508010820 7 308 1.6 1.6 0.00 0.08 0.08 91 1013.8
20260508010318 8 302 0.0 1.6 0.00 0.08 0.08 90 1013.7
20260508005815 8 305 0.0 1.6 0.00 0.08 0.08 89 1013.6
20260508005312 8 302 0.0 0.0 0.00 0.08 0.08 89 1013.6
20260508004808 8 300 0.0 0.0 0.00 0.08 0.08 88 1013.7
20260508004304 8 296 0.0 0.0 0.00 0.08 0.08 88 1013.7
20260508003801 8 299 0.0 1.6 0.00 0.08 0.08 87 1013.5
20260508003259 9 314 1.6 1.6 0.00 0.08 0.08 86 1013.6
20260508002755 9 299 0.0 1.6 0.00 0.08 0.08 85 1013.6
20260508002252 9 302 0.0 1.6 0.00 0.08 0.08 84 1013.7
20260508001748 9 299 0.0 1.6 0.00 0.08 0.08 83 1013.5
20260508001243 9 314 1.6 3.2 0.00 0.08 0.08 84 1013.7
20260508000740 10 302 0.0 3.2 0.00 0.08 0.08 84 1013.6
20260508000237 10 306 1.6 1.6 0.00 0.08 0.08 83 1013.7
20260507235733 9 314 3.2 3.2 0.00 0.08 0.08 84 1013.3
20260507235231 10 324 3.2 3.2 0.00 0.08 0.08 82 1013.7
20260507234728 10 321 3.2 3.2 0.00 0.08 0.08 82 1013.6
20260507234224 10 333 1.6 4.8 0.00 0.08 0.08 82 1013.7
20260507233721 10 311 1.6 4.8 0.00 0.08 0.08 81 1013.7
20260507233219 10 300 1.6 6.4 0.00 0.08 0.08 80 1013.8
20260507232716 10 314 3.2 3.2 0.00 0.08 0.08 80 1013.7
20260507232213 10 38 3.2 4.8 0.00 0.08 0.08 79 1013.6
20260507231710 10 301 1.6 4.8 0.00 0.08 0.08 80 1013.5
20260507231207 10 299 1.6 3.2 0.00 0.08 0.08 80 1013.5
20260507230703 10 2 6.4 6.4 0.00 0.08 0.08 81 1013.6
20260507230200 10 324 4.8 4.8 0.00 0.08 0.08 81 1013.6
20260507225700 10 300 0.0 3.2 0.00 0.08 0.08 80 1013.6
20260507225157 10 339 3.2 4.8 0.00 0.08 0.08 80 1013.2
20260507224652 10 314 4.8 6.4 0.00 0.08 0.08 80 1013.6
20260507224149 10 310 1.6 4.8 0.00 0.08 0.08 80 1013.5
20260507223645 10 311 3.2 3.2 0.00 0.08 0.08 79 1013.2
20260507223142 11 335 3.2 3.2 0.00 0.08 0.08 77 1013.1
20260507222639 10 306 1.6 6.4 0.00 0.08 0.08 78 1013.2
20260507222136 11 286 3.2 3.2 0.00 0.08 0.08 80 1013.1
20260507221632 10 301 0.0 3.2 0.00 0.08 0.08 82 1013.0
20260507221128 10 300 1.6 1.6 0.00 0.08 0.08 82 1013.0
20260507220626 10 318 3.2 4.8 0.00 0.08 0.08 82 1012.9
20260507220123 10 309 1.6 3.2 0.00 0.08 0.08 82 1012.9
20260507215619 10 327 1.6 4.8 0.00 0.08 0.08 82 1012.9
20260507215117 10 312 3.2 4.8 0.00 0.08 0.08 81 1013.0
20260507214614 10 320 1.6 9.7 0.00 0.08 0.08 82 1012.8
20260507214110 10 310 0.0 4.8 0.00 0.08 0.08 80 1012.9
20260507213607 11 297 3.2 9.7 0.00 0.08 0.08 79 1012.6
20260507213104 11 300 3.2 4.8 0.00 0.08 0.08 78 1012.4
20260507212600 10 343 3.2 4.8 0.00 0.08 0.08 81 1012.6
20260507212057 10 301 0.0 4.8 0.00 0.08 0.08 84 1012.5
20260507211553 10 353 3.2 6.4 0.00 0.08 0.08 85 1012.5
20260507211049 10 70 6.4 9.7 0.00 0.08 0.08 84 1012.3
20260507210547 10 303 1.6 11.3 0.00 0.08 0.08 85 1012.4
20260507210043 10 348 3.2 9.7 0.00 0.08 0.08 85 1012.4
20260507205540 10 305 3.2 11.3 0.00 0.08 0.08 86 1012.1
20260507205037 11 294 3.2 12.9 0.00 0.08 0.08 84 1011.9
20260507204533 12 311 6.4 9.7 0.00 0.08 0.08 81 1011.9
20260507204031 12 3 8.0 11.3 0.00 0.08 0.08 79 1011.8
20260507203528 13 334 9.7 11.3 0.00 0.08 0.08 75 1011.6
20260507203026 15 312 6.4 9.7 0.00 0.08 0.08 73 1011.7
20260507202521 15 288 1.6 3.2 0.00 0.08 0.08 73 1011.4
20260507202017 13 276 1.6 9.7 0.00 0.08 0.08 78 1011.4
20260507201513 13 299 8.0 14.5 0.00 0.08 0.08 77 1011.5
20260507201010 13 299 6.4 9.7 0.00 0.08 0.08 78 1011.5
20260507200505 15 322 3.2 9.7 0.00 0.08 0.08 73 1011.3
20260507200001 16 295 3.2 4.8 0.00 0.08 0.08 72 1011.5
20260507195459 16 305 3.2 4.8 0.00 0.08 0.08 72 1011.3
20260507194956 16 309 1.6 9.7 0.00 0.08 0.08 72 1011.2
20260507194452 16 257 3.2 6.4 0.00 0.08 0.08 74 1011.6
20260507193948 16 289 1.6 6.4 0.00 0.08 0.08 72 1011.5
20260507193446 16 303 3.2 4.8 0.00 0.08 0.08 71 1011.3
20260507192942 16 294 3.2 9.7 0.00 0.08 0.08 73 1011.4
20260507192438 16 276 0.0 3.2 0.00 0.08 0.08 73 1011.4
20260507191936 16 316 4.8 6.4 0.00 0.08 0.08 74 1011.6
20260507191431 16 270 1.6 4.8 0.00 0.08 0.08 73 1011.4
20260507190928 17 279 4.8 11.3 0.00 0.08 0.08 75 1011.5
20260507190426 17 251 4.8 6.4 0.00 0.08 0.08 68 1011.6
20260507185925 16 277 4.8 6.4 0.00 0.08 0.08 73 1011.7
20260507185422 16 301 4.8 12.9 0.00 0.08 0.08 73 1011.6
20260507184918 17 286 1.6 3.2 0.00 0.08 0.08 73 1011.5
20260507184416 16 318 4.8 11.3 0.00 0.08 0.08 72 1011.8
20260507183914 17 312 3.2 11.3 0.00 0.08 0.08 70 1011.6
20260507183410 17 4 6.4 9.7 0.00 0.08 0.08 70 1011.6
20260507182908 17 315 3.2 6.4 0.00 0.08 0.08 71 1011.6
20260507182403 17 247 6.4 9.7 0.00 0.08 0.08 71 1011.6
20260507181900 16 305 1.6 11.3 0.00 0.08 0.08 74 1011.7
20260507181356 17 297 3.2 4.8 0.00 0.08 0.08 74 1011.6
20260507180853 16 289 1.6 4.8 0.00 0.08 0.08 77 1011.5
20260507180349 16 263 3.2 6.4 0.00 0.08 0.08 76 1011.6
20260507175845 15 300 1.6 4.8 0.00 0.08 0.08 79 1011.6
20260507175342 15 253 3.2 6.4 0.00 0.08 0.08 80 1011.7
20260507174840 15 292 1.6 6.4 0.00 0.08 0.08 80 1011.6
20260507174337 15 304 1.6 3.2 0.00 0.08 0.08 81 1011.5
20260507173835 16 258 3.2 4.8 0.00 0.08 0.08 80 1011.4
20260507173332 16 308 3.2 6.4 0.00 0.08 0.08 78 1011.3
20260507172828 17 304 3.2 4.8 0.00 0.08 0.08 78 1011.4
20260507172325 16 290 3.2 3.2 0.00 0.08 0.08 78 1011.2
20260507171820 16 297 1.6 4.8 0.00 0.08 0.08 81 1011.2
20260507171318 16 324 3.2 4.8 0.00 0.08 0.08 80 1011.4
20260507170814 16 299 1.6 3.2 0.00 0.08 0.08 82 1011.2
20260507170311 16 241 3.2 6.4 0.00 0.08 0.08 83 1011.3
20260507165807 16 224 4.8 4.8 0.00 0.08 0.08 82 1011.2
20260507165306 17 234 4.8 4.8 0.00 0.08 0.08 80 1011.2
20260507164759 16 304 3.2 4.8 0.00 0.08 0.08 83 1011.1
20260507164256 17 254 4.8 4.8 0.00 0.08 0.08 83 1011.4
20260507163753 18 315 3.2 4.8 0.00 0.08 0.08 79 1011.2
20260507163251 18 221 4.8 14.5 0.00 0.08 0.08 80 1011.3
20260507162747 18 187 3.2 4.8 0.00 0.08 0.08 76 1011.1
20260507162243 18 296 1.6 4.8 0.00 0.08 0.08 83 1011.2
20260507161740 18 283 0.0 4.8 0.00 0.08 0.08 77 1011.2
20260507161237 16 326 3.2 4.8 0.00 0.08 0.08 82 1010.9
20260507160732 16 314 1.6 4.8 0.00 0.08 0.08 83 1011.1
20260507160229 16 303 1.6 3.2 0.00 0.08 0.08 86 1011.1
20260507155725 16 306 3.2 4.8 0.00 0.08 0.08 85 1011.2
20260507155221 16 319 3.2 4.8 0.00 0.08 0.08 85 1011.2
20260507154718 16 291 1.6 3.2 0.00 0.08 0.08 85 1011.2
20260507154216 15 317 3.2 4.8 0.00 0.08 0.08 88 1011.2
20260507153712 15 323 1.6 3.2 0.00 0.08 0.08 91 1011.3
20260507153209 15 318 3.2 3.2 0.00 0.08 0.08 90 1011.4
20260507152705 15 303 1.6 3.2 0.00 0.08 0.08 91 1011.3
20260507152201 15 342 3.2 6.4 0.00 0.08 0.08 89 1011.3
20260507151657 16 300 0.0 1.6 0.00 0.08 0.08 90 1011.4
20260507151154 15 292 0.0 1.6 0.00 0.08 0.08 94 1011.2
20260507150651 15 289 0.0 4.8 0.00 0.08 0.08 93 1011.1
20260507150148 15 300 0.0 1.6 0.00 0.08 0.08 91 1011.4
20260507145643 15 295 1.6 1.6 0.00 0.08 0.08 93 1011.2